ProjectID,Date,Electric Generation,Electric Utility Import,Facility Electric Load
,YYYY-MM-DD,kW,kW,kW
364,2016-08-01,0.0033333333333333335,,0.0033333333333333335
364,2016-08-02,25.006666666666664,,25.006666666666664
364,2016-08-03,37.693333333333335,,37.693333333333335
364,2016-08-04,53.01666666666667,,53.01666666666667
364,2016-08-05,71.81,,71.81
364,2016-08-06,45.04,,45.04
364,2016-08-07,61.70666666666667,,61.70666666666667
364,2016-08-08,53.376666666666665,,53.376666666666665
364,2016-08-09,62.51333333333333,,62.51333333333333
364,2016-08-10,25.02,,25.02
364,2016-08-11,37.19,,37.19
364,2016-08-12,26.86,,26.86
364,2016-08-13,26.84,,26.84
364,2016-08-14,20.333333333333332,,20.333333333333332
364,2016-08-15,17.493333333333332,,17.493333333333332
364,2016-08-16,15.553333333333333,,15.553333333333333
364,2016-08-17,19.316666666666666,,19.316666666666666
364,2016-08-18,9.93,,9.93
364,2016-08-19,13.196666666666667,,13.196666666666667
364,2016-08-20,11.096666666666666,,11.096666666666666
364,2016-08-21,12.4,,12.4
364,2016-08-22,19.646666666666665,,19.646666666666665
364,2016-08-23,12.39,,12.39
364,2016-08-24,4.39,,4.39
364,2016-08-25,4.003333333333333,,4.003333333333333
364,2016-08-26,3.59,,3.59
364,2016-08-27,4.206666666666666,,4.206666666666666
364,2016-08-28,4.18,,4.18
364,2016-08-29,3.8866666666666667,,3.8866666666666667
364,2016-08-30,4.01,,4.01
364,2016-08-31,3.31,,3.31
364,2016-09-01,1.2633333333333334,,1.2633333333333334
364,2016-09-02,4.066666666666666,,4.066666666666666
364,2016-09-03,2.3000000000000003,,2.3000000000000003
364,2016-09-04,3.6566666666666667,,3.6566666666666667
364,2016-09-05,2.5766666666666667,,2.5766666666666667
364,2016-09-06,8.123333333333333,,8.123333333333333
364,2016-09-07,23.88,,23.88
364,2016-09-08,55.846666666666664,,55.846666666666664
364,2016-09-09,35.51,,35.51
364,2016-09-10,49.53666666666667,,49.53666666666667
364,2016-09-11,50.41,,50.41
364,2016-09-12,62.0,,62.0
364,2016-09-13,61.593333333333334,,61.593333333333334
364,2016-09-14,59.85,,59.85
364,2016-09-15,61.42666666666667,,61.42666666666667
364,2016-09-16,64.26666666666667,,64.26666666666667
364,2016-09-17,60.97666666666667,,60.97666666666667
364,2016-09-18,39.00666666666667,,39.00666666666667
364,2016-09-19,6.226666666666667,,6.226666666666667
364,2016-09-20,33.54,,33.54
364,2016-09-21,50.120000000000005,,50.120000000000005
364,2016-09-22,62.17333333333334,,62.17333333333334
364,2016-09-23,58.43,,58.43
364,2016-09-24,45.10666666666666,,45.10666666666666
364,2016-09-25,65.17999999999999,,65.17999999999999
364,2016-09-26,57.38666666666666,,57.38666666666666
364,2016-09-27,32.51,,32.51
364,2016-09-28,19.426666666666666,,19.426666666666666
364,2016-09-29,16.900000000000002,,16.900000000000002
364,2016-09-30,11.06,,11.06
364,2016-10-01,11.200000000000001,,11.200000000000001
364,2016-10-02,14.17,,14.17
364,2016-10-03,29.706666666666667,,29.706666666666667
364,2016-10-04,29.08,,29.08
364,2016-10-05,52.99666666666667,,52.99666666666667
364,2016-10-06,53.163333333333334,,53.163333333333334
364,2016-10-07,50.59,,50.59
364,2016-10-08,17.663333333333334,,17.663333333333334
364,2016-10-09,0.006666666666666667,,0.006666666666666667
364,2016-10-10,0.0,,0.0
364,2016-10-11,0.0,,0.0
364,2016-10-12,0.0,,0.0
364,2016-10-13,0.0,,0.0
364,2016-10-14,0.0,,0.0
364,2016-10-15,0.0,,0.0
364,2016-10-16,0.0,,0.0
364,2016-10-17,0.0,,0.0
364,2016-10-18,0.0,,0.0
364,2016-10-19,0.0,,0.0
364,2016-10-20,0.0,,0.0
364,2016-10-21,0.0,,0.0
364,2016-10-22,0.0,,0.0
364,2016-10-23,0.0,,0.0
364,2016-10-24,40.82333333333333,,40.82333333333333
364,2016-10-25,37.843333333333334,,37.843333333333334
364,2016-10-26,45.16,,45.16
364,2016-10-27,7.236666666666667,,7.236666666666667
364,2016-10-28,31.103333333333335,,31.103333333333335
364,2016-10-29,37.97,,37.97
364,2016-10-30,34.873333333333335,,34.873333333333335
364,2016-10-31,41.03,,41.03
364,2016-11-01,32.67666666666667,,32.67666666666667
364,2016-11-02,35.983333333333334,,35.983333333333334
364,2016-11-03,18.36,,18.36
364,2016-11-04,39.28,,39.28
364,2016-11-05,35.60333333333333,,35.60333333333333
364,2016-11-06,32.22,,32.22
364,2016-11-07,39.15333333333333,,39.15333333333333
364,2016-11-08,36.906666666666666,,36.906666666666666
364,2016-11-09,12.44,,12.44
364,2016-11-10,36.013333333333335,,36.013333333333335
364,2016-11-11,34.60666666666666,,34.60666666666666
364,2016-11-12,36.79,,36.79
364,2016-11-13,34.59666666666667,,34.59666666666667
364,2016-11-14,34.36666666666667,,34.36666666666667
364,2016-11-15,3.6366666666666667,,3.6366666666666667
364,2016-11-16,32.68666666666667,,32.68666666666667
364,2016-11-17,31.133333333333336,,31.133333333333336
364,2016-11-18,32.67666666666667,,32.67666666666667
364,2016-11-19,30.456666666666667,,30.456666666666667
364,2016-11-20,18.64,,18.64
364,2016-11-21,15.596666666666666,,15.596666666666666
364,2016-11-22,33.10333333333333,,33.10333333333333
364,2016-11-23,32.946666666666665,,32.946666666666665
364,2016-11-24,11.843333333333334,,11.843333333333334
364,2016-11-25,19.826666666666664,,19.826666666666664
364,2016-11-26,26.05666666666667,,26.05666666666667
364,2016-11-27,29.256666666666664,,29.256666666666664
364,2016-11-28,29.72,,29.72
364,2016-11-29,2.0533333333333332,,2.0533333333333332
364,2016-11-30,5.376666666666666,,5.376666666666666
364,2016-12-01,25.703333333333333,,25.703333333333333
364,2016-12-02,27.003333333333334,,27.003333333333334
364,2016-12-03,28.55333333333333,,28.55333333333333
364,2016-12-04,29.906666666666666,,29.906666666666666
364,2016-12-05,18.543333333333333,,18.543333333333333
364,2016-12-06,17.383333333333333,,17.383333333333333
364,2016-12-07,11.29,,11.29
364,2016-12-08,13.89,,13.89
364,2016-12-09,25.926666666666666,,25.926666666666666
364,2016-12-10,27.986666666666665,,27.986666666666665
364,2016-12-11,20.37333333333333,,20.37333333333333
364,2016-12-12,4.796666666666667,,4.796666666666667
364,2016-12-13,24.69666666666667,,24.69666666666667
364,2016-12-14,27.566666666666666,,27.566666666666666
364,2016-12-15,21.38,,21.38
364,2016-12-16,26.52,,26.52
364,2016-12-17,0.17333333333333334,,0.17333333333333334
364,2016-12-18,7.02,,7.02
364,2016-12-19,27.633333333333336,,27.633333333333336
364,2016-12-20,24.7,,24.7
364,2016-12-21,17.55333333333333,,17.55333333333333
364,2016-12-22,14.0,,14.0
364,2016-12-23,25.69666666666667,,25.69666666666667
364,2016-12-24,3.3366666666666664,,3.3366666666666664
364,2016-12-25,27.66,,27.66
364,2016-12-26,15.066666666666668,,15.066666666666668
364,2016-12-27,12.873333333333333,,12.873333333333333
364,2016-12-28,15.62,,15.62
364,2016-12-29,3.1466666666666665,,3.1466666666666665
364,2016-12-30,23.709999999999997,,23.709999999999997
364,2016-12-31,22.973333333333333,,22.973333333333333
364,2017-01-01,28.223333333333333,,28.223333333333333
364,2017-01-02,6.353333333333333,,6.353333333333333
364,2017-01-03,5.363333333333333,,5.363333333333333
364,2017-01-04,17.916666666666668,,17.916666666666668
364,2017-01-05,20.12333333333333,,20.12333333333333
364,2017-01-06,1.62,,1.62
364,2017-01-07,0.17666666666666667,,0.17666666666666667
364,2017-01-08,5.420000000000001,,5.420000000000001
364,2017-01-09,7.786666666666666,,7.786666666666666
364,2017-01-10,10.496666666666666,,10.496666666666666
364,2017-01-11,25.36,,25.36
364,2017-01-12,24.180000000000003,,24.180000000000003
364,2017-01-13,30.060000000000002,,30.060000000000002
364,2017-01-14,18.333333333333332,,18.333333333333332
364,2017-01-15,3.0533333333333332,,3.0533333333333332
364,2017-01-16,25.823333333333334,,25.823333333333334
364,2017-01-17,7.06,,7.06
364,2017-01-18,5.73,,5.73
364,2017-01-19,29.41,,29.41
364,2017-01-20,9.466666666666667,,9.466666666666667
364,2017-01-21,17.64,,17.64
364,2017-01-22,20.576666666666664,,20.576666666666664
364,2017-01-23,6.923333333333333,,6.923333333333333
364,2017-01-24,8.13,,8.13
364,2017-01-25,28.973333333333333,,28.973333333333333
364,2017-01-26,10.03,,10.03
364,2017-01-27,13.276666666666666,,13.276666666666666
364,2017-01-28,18.34,,18.34
364,2017-01-29,35.20666666666667,,35.20666666666667
364,2017-01-30,25.173333333333332,,25.173333333333332
364,2017-01-31,5.829999999999999,,5.829999999999999
364,2017-02-01,16.066666666666666,,16.066666666666666
364,2017-02-02,26.02,,26.02
364,2017-02-03,28.52333333333333,,28.52333333333333
364,2017-02-04,42.583333333333336,,42.583333333333336
364,2017-02-05,21.51,,21.51
364,2017-02-06,42.083333333333336,,42.083333333333336
364,2017-02-07,10.366666666666667,,10.366666666666667
364,2017-02-08,31.633333333333336,,31.633333333333336
364,2017-02-09,0.13666666666666666,,0.13666666666666666
364,2017-02-10,1.7166666666666668,,1.7166666666666668
364,2017-02-11,5.276666666666666,,5.276666666666666
364,2017-02-12,0.9666666666666667,,0.9666666666666667
364,2017-02-13,19.263333333333332,,19.263333333333332
364,2017-02-14,17.863333333333333,,17.863333333333333
364,2017-02-15,15.593333333333334,,15.593333333333334
364,2017-02-16,37.11333333333334,,37.11333333333334
364,2017-02-17,41.0,,41.0
364,2017-02-18,42.82333333333333,,42.82333333333333
364,2017-02-19,38.81,,38.81
364,2017-02-20,51.93,,51.93
364,2017-02-21,45.096666666666664,,45.096666666666664
364,2017-02-22,27.666666666666668,,27.666666666666668
364,2017-02-23,25.643333333333334,,25.643333333333334
364,2017-02-24,49.593333333333334,,49.593333333333334
364,2017-02-25,33.19,,33.19
364,2017-02-26,49.550000000000004,,49.550000000000004
364,2017-02-27,47.36666666666667,,47.36666666666667
364,2017-02-28,31.48,,31.48
364,2017-03-01,11.83,,11.83
364,2017-03-02,59.48,,59.48
364,2017-03-03,48.67333333333334,,48.67333333333334
364,2017-03-04,50.196666666666665,,50.196666666666665
364,2017-03-05,59.4,,59.4
364,2017-03-06,53.04333333333333,,53.04333333333333
364,2017-03-07,13.316666666666668,,13.316666666666668
364,2017-03-08,40.43666666666667,,40.43666666666667
364,2017-03-09,56.50666666666667,,56.50666666666667
364,2017-03-10,0.2966666666666667,,0.2966666666666667
364,2017-03-11,7.3999999999999995,,7.3999999999999995
364,2017-03-12,28.346666666666668,,28.346666666666668
364,2017-03-13,53.36666666666667,,53.36666666666667
364,2017-03-14,7.493333333333333,,7.493333333333333
364,2017-03-15,44.370000000000005,,44.370000000000005
364,2017-03-16,64.11,,64.11
364,2017-03-17,64.21333333333332,,64.21333333333332
364,2017-03-18,17.669999999999998,,17.669999999999998
364,2017-03-19,59.68,,59.68
364,2017-03-20,64.62666666666667,,64.62666666666667
364,2017-03-21,47.370000000000005,,47.370000000000005
364,2017-03-22,67.82333333333334,,67.82333333333334
364,2017-03-23,68.96,,68.96
364,2017-03-24,31.093333333333334,,31.093333333333334
364,2017-03-25,33.33,,33.33
364,2017-03-26,15.06,,15.06
364,2017-03-27,18.650000000000002,,18.650000000000002
364,2017-03-28,11.173333333333334,,11.173333333333334
364,2017-03-29,59.32,,59.32
364,2017-03-30,55.96,,55.96
364,2017-03-31,6.163333333333333,,6.163333333333333
364,2017-04-01,26.286666666666665,,26.286666666666665
364,2017-04-02,62.77,,62.77
364,2017-04-03,51.70333333333334,,51.70333333333334
364,2017-04-04,14.543333333333335,,14.543333333333335
364,2017-04-05,37.27333333333333,,37.27333333333333
364,2017-04-06,8.303333333333333,,8.303333333333333
364,2017-04-07,23.916666666666668,,23.916666666666668
364,2017-04-08,65.85666666666667,,65.85666666666667
364,2017-04-09,65.10666666666667,,65.10666666666667
364,2017-04-10,60.99,,60.99
364,2017-04-11,61.163333333333334,,61.163333333333334
364,2017-04-12,38.406666666666666,,38.406666666666666
364,2017-04-13,57.88333333333333,,57.88333333333333
364,2017-04-14,59.443333333333335,,59.443333333333335
364,2017-04-15,46.873333333333335,,46.873333333333335
364,2017-04-16,55.14333333333334,,55.14333333333334
364,2017-04-17,37.11,,37.11
364,2017-04-18,67.92999999999999,,67.92999999999999
364,2017-04-19,40.63,,40.63
364,2017-04-20,39.556666666666665,,39.556666666666665
364,2017-04-21,15.516666666666666,,15.516666666666666
364,2017-04-22,18.68,,18.68
364,2017-04-23,60.45333333333334,,60.45333333333334
364,2017-04-24,33.75,,33.75
364,2017-04-25,13.666666666666666,,13.666666666666666
364,2017-04-26,30.41,,30.41
364,2017-04-27,32.553333333333335,,32.553333333333335
364,2017-04-28,60.18,,60.18
364,2017-04-29,51.79,,51.79
364,2017-04-30,33.95333333333333,,33.95333333333333
364,2017-05-01,42.00666666666667,,42.00666666666667
364,2017-05-02,48.56666666666666,,48.56666666666666
364,2017-05-03,65.99,,65.99
364,2017-05-04,80.74666666666667,,80.74666666666667
364,2017-05-05,11.493333333333332,,11.493333333333332
364,2017-05-06,62.153333333333336,,62.153333333333336
364,2017-05-07,57.300000000000004,,57.300000000000004
364,2017-05-08,75.57000000000001,,75.57000000000001
364,2017-05-09,43.57,,43.57
364,2017-05-10,55.36333333333334,,55.36333333333334
364,2017-05-11,57.21666666666667,,57.21666666666667
364,2017-05-12,69.54,,69.54
364,2017-05-13,12.473333333333334,,12.473333333333334
364,2017-05-14,62.68666666666667,,62.68666666666667
364,2017-05-15,58.18,,58.18
364,2017-05-16,69.2,,69.2
364,2017-05-17,78.86666666666666,,78.86666666666666
364,2017-05-18,88.89,,88.89
364,2017-05-19,76.63,,76.63
364,2017-05-20,44.553333333333335,,44.553333333333335
364,2017-05-21,94.77333333333333,,94.77333333333333
364,2017-05-22,14.843333333333334,,14.843333333333334
364,2017-05-23,59.22333333333333,,59.22333333333333
364,2017-05-24,60.21666666666667,,60.21666666666667
364,2017-05-25,18.286666666666665,,18.286666666666665
364,2017-05-26,69.17666666666666,,69.17666666666666
364,2017-05-27,56.906666666666666,,56.906666666666666
364,2017-05-28,77.59,,77.59
364,2017-05-29,27.319999999999997,,27.319999999999997
364,2017-05-30,39.71,,39.71
364,2017-05-31,54.85,,54.85
364,2017-06-01,75.38666666666667,,75.38666666666667
364,2017-06-02,89.75,,89.75
364,2017-06-03,79.42,,79.42
364,2017-06-04,50.5,,50.5
364,2017-06-05,29.223333333333333,,29.223333333333333
364,2017-06-06,21.72666666666667,,21.72666666666667
364,2017-06-07,68.88333333333334,,68.88333333333334
364,2017-06-08,60.93333333333334,,60.93333333333334
364,2017-06-09,91.77999999999999,,91.77999999999999
364,2017-06-10,91.77,,91.77
364,2017-06-11,91.28666666666668,,91.28666666666668
364,2017-06-12,91.44,,91.44
364,2017-06-13,86.87333333333333,,86.87333333333333
364,2017-06-14,78.48,,78.48
364,2017-06-15,94.34333333333332,,94.34333333333332
364,2017-06-16,17.393333333333334,,17.393333333333334
364,2017-06-17,28.633333333333336,,28.633333333333336
364,2017-06-18,55.50333333333333,,55.50333333333333
364,2017-06-19,66.51,,66.51
364,2017-06-20,84.29333333333334,,84.29333333333334
364,2017-06-21,71.82666666666667,,71.82666666666667
364,2017-06-22,90.91000000000001,,90.91000000000001
364,2017-06-23,52.48,,52.48
364,2017-06-24,74.11,,74.11
364,2017-06-25,89.78333333333335,,89.78333333333335
364,2017-06-26,87.66000000000001,,87.66000000000001
364,2017-06-27,68.17666666666666,,68.17666666666666
364,2017-06-28,87.09333333333332,,87.09333333333332
364,2017-06-29,73.54333333333334,,73.54333333333334
364,2017-06-30,74.34666666666666,,74.34666666666666
364,2017-07-01,34.38666666666666,,34.38666666666666
364,2017-07-02,82.50666666666667,,82.50666666666667
364,2017-07-03,69.84666666666666,,69.84666666666666
364,2017-07-04,75.24333333333333,,75.24333333333333
364,2017-07-05,87.32,,87.32
364,2017-07-06,46.46666666666667,,46.46666666666667
364,2017-07-07,31.58666666666667,,31.58666666666667
364,2017-07-08,71.17333333333333,,71.17333333333333
364,2017-07-09,85.55333333333334,,85.55333333333334
364,2017-07-10,84.00333333333333,,84.00333333333333
364,2017-07-11,61.97333333333333,,61.97333333333333
364,2017-07-12,69.2,,69.2
364,2017-07-13,57.24333333333333,,57.24333333333333
364,2017-07-14,16.936666666666667,,16.936666666666667
364,2017-07-15,56.28666666666667,,56.28666666666667
364,2017-07-16,79.38666666666667,,79.38666666666667
364,2017-07-17,67.39999999999999,,67.39999999999999
364,2017-07-18,75.62333333333333,,75.62333333333333
364,2017-07-19,79.92333333333333,,79.92333333333333
364,2017-07-20,67.28333333333333,,67.28333333333333
364,2017-07-21,79.02666666666667,,79.02666666666667
364,2017-07-22,67.11,,67.11
364,2017-07-23,43.88999999999999,,43.88999999999999
364,2017-07-24,19.403333333333332,,19.403333333333332
364,2017-07-25,35.03333333333333,,35.03333333333333
364,2017-07-26,80.20333333333333,,80.20333333333333
364,2017-07-27,52.9,,52.9
364,2017-07-28,50.32666666666666,,50.32666666666666
364,2017-07-29,31.206666666666667,,31.206666666666667
364,2017-07-30,84.64999999999999,,84.64999999999999
364,2017-07-31,75.48333333333333,,75.48333333333333
364,2017-08-01,69.56,,69.56
364,2017-08-02,53.050000000000004,,53.050000000000004
364,2017-08-03,67.35333333333334,,67.35333333333334
364,2017-08-04,62.21666666666667,,62.21666666666667
364,2017-08-05,39.6,,39.6
364,2017-08-06,56.36666666666667,,56.36666666666667
364,2017-08-07,11.133333333333333,,11.133333333333333
364,2017-08-08,38.07,,38.07
364,2017-08-09,70.17,,70.17
364,2017-08-10,67.58,,67.58
364,2017-08-11,61.71666666666667,,61.71666666666667
364,2017-08-12,29.53333333333333,,29.53333333333333
364,2017-08-13,65.14999999999999,,65.14999999999999
364,2017-08-14,42.52333333333333,,42.52333333333333
364,2017-08-15,22.16333333333333,,22.16333333333333
364,2017-08-16,65.83666666666666,,65.83666666666666
364,2017-08-17,64.85333333333334,,64.85333333333334
364,2017-08-18,16.30666666666667,,16.30666666666667
364,2017-08-19,59.03333333333333,,59.03333333333333
364,2017-08-20,63.36666666666667,,63.36666666666667
364,2017-08-21,52.81,,52.81
364,2017-08-22,47.82666666666666,,47.82666666666666
364,2017-08-23,50.48666666666667,,50.48666666666667
364,2017-08-24,59.38333333333333,,59.38333333333333
364,2017-08-25,56.800000000000004,,56.800000000000004
364,2017-08-26,61.04333333333333,,61.04333333333333
364,2017-08-27,53.50333333333333,,53.50333333333333
364,2017-08-28,50.22666666666667,,50.22666666666667
364,2017-08-29,13.9,,13.9
364,2017-08-30,57.25,,57.25
364,2017-08-31,53.74666666666667,,53.74666666666667
364,2017-09-01,62.653333333333336,,62.653333333333336
364,2017-09-02,31.26,,31.26
364,2017-09-03,25.046666666666667,,25.046666666666667
364,2017-09-04,60.03666666666667,,60.03666666666667
364,2017-09-05,56.27333333333333,,56.27333333333333
364,2017-09-06,16.736666666666668,,16.736666666666668
364,2017-09-07,54.95666666666667,,54.95666666666667
364,2017-09-08,63.89333333333334,,63.89333333333334
364,2017-09-09,71.84,,71.84
364,2017-09-10,67.29333333333334,,67.29333333333334
364,2017-09-11,65.53333333333333,,65.53333333333333
364,2017-09-12,57.51,,57.51
364,2017-09-13,60.88999999999999,,60.88999999999999
364,2017-09-14,41.376666666666665,,41.376666666666665
364,2017-09-15,63.02,,63.02
364,2017-09-16,43.76666666666667,,43.76666666666667
364,2017-09-17,39.25,,39.25
364,2017-09-18,16.456666666666667,,16.456666666666667
364,2017-09-19,19.3,,19.3
364,2017-09-20,26.353333333333335,,26.353333333333335
364,2017-09-21,25.73,,25.73
364,2017-09-22,55.63999999999999,,55.63999999999999
364,2017-09-23,60.373333333333335,,60.373333333333335
364,2017-09-24,57.06333333333333,,57.06333333333333
364,2017-09-25,56.03666666666667,,56.03666666666667
364,2017-09-26,49.70333333333334,,49.70333333333334
364,2017-09-27,39.086666666666666,,39.086666666666666
364,2017-09-28,59.96333333333333,,59.96333333333333
364,2017-09-29,51.52,,51.52
364,2017-09-30,30.296666666666667,,30.296666666666667
364,2017-10-01,60.06,,60.06
364,2017-10-02,59.01333333333333,,59.01333333333333
364,2017-10-03,57.03333333333333,,57.03333333333333
364,2017-10-04,56.82666666666666,,56.82666666666666
364,2017-10-05,45.35333333333333,,45.35333333333333
364,2017-10-06,47.93,,47.93
364,2017-10-07,41.71,,41.71
364,2017-10-08,10.686666666666667,,10.686666666666667
364,2017-10-09,7.986666666666667,,7.986666666666667
364,2017-10-10,50.56333333333333,,50.56333333333333
364,2017-10-11,33.776666666666664,,33.776666666666664
364,2017-10-12,38.513333333333335,,38.513333333333335
364,2017-10-13,46.91,,46.91
364,2017-10-14,19.62,,19.62
364,2017-10-15,19.316666666666666,,19.316666666666666
364,2017-10-16,23.94333333333333,,23.94333333333333
364,2017-10-17,50.95666666666667,,50.95666666666667
364,2017-10-18,46.443333333333335,,46.443333333333335
364,2017-10-19,47.97666666666667,,47.97666666666667
364,2017-10-20,46.78,,46.78
364,2017-10-21,45.04,,45.04
364,2017-10-22,42.416666666666664,,42.416666666666664
364,2017-10-23,34.78333333333333,,34.78333333333333
364,2017-10-24,15.493333333333332,,15.493333333333332
364,2017-10-25,11.883333333333333,,11.883333333333333
364,2017-10-26,16.136666666666667,,16.136666666666667
364,2017-10-27,43.24666666666667,,43.24666666666667
364,2017-10-28,36.24333333333333,,36.24333333333333
364,2017-10-29,3.013333333333333,,3.013333333333333
364,2017-10-30,36.93666666666667,,36.93666666666667
364,2017-10-31,40.626666666666665,,40.626666666666665
364,2017-11-01,19.37666666666667,,19.37666666666667
364,2017-11-02,35.34666666666667,,35.34666666666667
364,2017-11-03,29.766666666666666,,29.766666666666666
364,2017-11-04,33.56,,33.56
364,2017-11-05,4.953333333333333,,4.953333333333333
364,2017-11-06,8.336666666666668,,8.336666666666668
364,2017-11-07,13.116666666666667,,13.116666666666667
364,2017-11-08,19.416666666666668,,19.416666666666668
364,2017-11-09,32.46333333333333,,32.46333333333333
364,2017-11-10,38.21333333333333,,38.21333333333333
364,2017-11-11,38.64333333333334,,38.64333333333334
364,2017-11-12,30.36,,30.36
364,2017-11-13,10.266666666666667,,10.266666666666667
364,2017-11-14,7.816666666666666,,7.816666666666666
364,2017-11-15,30.99,,30.99
364,2017-11-16,19.02,,19.02
364,2017-11-17,35.63666666666666,,35.63666666666666
364,2017-11-18,12.746666666666668,,12.746666666666668
364,2017-11-19,24.016666666666666,,24.016666666666666
364,2017-11-20,27.876666666666665,,27.876666666666665
364,2017-11-21,29.99,,29.99
364,2017-11-22,7.4433333333333325,,7.4433333333333325
364,2017-11-23,32.723333333333336,,32.723333333333336
364,2017-11-24,31.08,,31.08
364,2017-11-25,29.143333333333334,,29.143333333333334
364,2017-11-26,30.25,,30.25
364,2017-11-27,30.453333333333333,,30.453333333333333
364,2017-11-28,29.63,,29.63
364,2017-11-29,26.743333333333336,,26.743333333333336
364,2017-11-30,16.113333333333333,,16.113333333333333
364,2017-12-01,26.08666666666667,,26.08666666666667
364,2017-12-02,25.243333333333336,,25.243333333333336
364,2017-12-03,15.696666666666667,,15.696666666666667
364,2017-12-04,27.113333333333333,,27.113333333333333
364,2017-12-05,8.333333333333334,,8.333333333333334
364,2017-12-06,17.61,,17.61
364,2017-12-07,28.496666666666666,,28.496666666666666
364,2017-12-08,15.57,,15.57
364,2017-12-09,2.5833333333333335,,2.5833333333333335
364,2017-12-10,1.1433333333333333,,1.1433333333333333
364,2017-12-11,3.106666666666667,,3.106666666666667
364,2017-12-12,10.073333333333332,,10.073333333333332
364,2017-12-13,23.02,,23.02
364,2017-12-14,1.0133333333333334,,1.0133333333333334
364,2017-12-15,1.2233333333333334,,1.2233333333333334
364,2017-12-16,0.7066666666666667,,0.7066666666666667
364,2017-12-17,2.4533333333333336,,2.4533333333333336
364,2017-12-18,12.06,,12.06
364,2017-12-19,17.733333333333334,,17.733333333333334
364,2017-12-20,17.786666666666665,,17.786666666666665
364,2017-12-21,27.113333333333333,,27.113333333333333
364,2017-12-22,4.706666666666666,,4.706666666666666
364,2017-12-23,2.41,,2.41
364,2017-12-24,20.900000000000002,,20.900000000000002
364,2017-12-25,23.503333333333334,,23.503333333333334
364,2017-12-26,23.55333333333333,,23.55333333333333
364,2017-12-27,27.316666666666666,,27.316666666666666
364,2017-12-28,30.223333333333333,,30.223333333333333